{"data":{"norad_id":63741,"intl_designator":"2025-088T","name":"KUIPER-00028","alt_names":[],"object_type":"PAYLOAD","status":"ACTIVE","operator":null,"country":"US","launch_date":"2025-04-28","launch_site_code":"AFETR","launch_vehicle":null,"mission":null,"orbit_class":"UNKNOWN","rcs_meters":null,"size_class":null,"mass_kg":null,"dimensions":null,"purposes":[],"wikipedia_slug":null,"has_3d_model":false,"image_url":null,"decayed_at":null,"tle_current":{"epoch":"2026-09-20T20:35:40.132032Z","epoch_age_seconds":174029,"freshness":"STALE","line1":"1 63741U 25088T   26263.85810338 -.00000142  00000+0  10371-4 0  9992","line2":"2 63741  51.9011 310.0125 0000262  61.0707 299.0282 14.79927191 76963","mean_motion":14.79927191,"eccentricity":2.62e-5,"inclination_deg":51.9011,"raan_deg":310.0125,"arg_perigee_deg":61.0707,"mean_anomaly_deg":299.0282,"bstar":1.0371e-5,"rev_number":7696,"period_min":97.302084099622,"perigee_km":629.37036530517,"apogee_km":629.73756831183,"semimajor_km":7007.6909668085,"source":"CELESTRAK","updated_at":"2026-09-22T09:00:29.320354Z"}}}